Weather History for KFHR - June, 2013

Change the Weather History Date:

Wednesday, June 26, 2013

  Actual Average (KNUW) Record (KNUW)
Temperature  
Mean Temperature 61 °F -  
Max Temperature 71 °F 62 °F 75 °F (2000)
Min Temperature 53 °F 48 °F 45 °F (2011)
Degree Days  
Heating Degree Days 4    
Growing Degree Days 11 (Base 50)    
Moisture  
Dew Point 54 °F    
Average Humidity 86    
Maximum Humidity 94    
Minimum Humidity 63    
Precipitation  
Precipitation 0.00 in - - ()
Sea Level Pressure  
Sea Level Pressure 29.93 in    
Wind  
Wind Speed 4 mph (SE)    
Max Wind Speed 8 mph    
Max Gust Speed -    
Visibility 10 miles    
Events Rain    
Averages and records for this station are not official NWS values.
T = Trace of Precipitation, MM = Missing Value Source: NWS Daily Summary

Daily Weather History Graph

Daily Weather History Graph

Search for Another Location

Airport or City:

Trip Planner

Search our weather history database for the weather conditions in past years. The results will help you decide how hot, cold, wet, or windy it might be!

Date:

Astronomy

Jun. 26, 2013 Rise Set
Actual Time 5:11 AM PDT 9:18 PM PDT
Civil Twilight 4:29 AM PDT 10:00 PM PDT
Nautical Twilight 3:30 AM PDT 10:59 PM PDT
Astronomical Twilight 1:34 AM PDT 12:53 AM PDT
Moon 11:20 PM PDT (6/26) 9:30 AM PDT (6/26)
Length of Visible Light 17h 30m
Length of Day
16h 06m
Waning Gibbous, 84% of the Moon is Illuminated
Jun 26
Waning Gibbous
Jun 29
Last Quarter
Jul 8
New
Jul 15
First Quarter
Jul 22
Full

Hourly Weather History & Observations

Time (PDT) Temp. Dew Point Humidity Pressure Visibility Wind Dir Wind Speed Gust Speed Precip Events Conditions
12:34 AM 55.4 °F 51.8 °F 88% 29.83 in 10.0 mi SE 5.8 mph - N/A   Scattered Clouds
12:53 AM 55.0 °F 52.0 °F 89% 29.83 in 10.0 mi SE 8.1 mph - N/A   Scattered Clouds
1:07 AM 53.6 °F 51.8 °F 94% 29.83 in 10.0 mi SE 5.8 mph - N/A   Mostly Cloudy
1:18 AM 53.6 °F 51.8 °F 94% 29.83 in 10.0 mi SE 5.8 mph - N/A   Scattered Clouds
1:53 AM 55.0 °F 51.1 °F 86% 29.84 in 10.0 mi SE 4.6 mph - N/A   Mostly Cloudy
2:53 AM 55.9 °F 52.0 °F 87% 29.85 in 10.0 mi Variable 3.5 mph - N/A   Overcast
3:53 AM 55.0 °F 52.0 °F 89% 29.86 in 10.0 mi Calm Calm - N/A   Mostly Cloudy
4:53 AM 55.9 °F 52.0 °F 87% 29.86 in 10.0 mi Calm Calm - N/A   Overcast
5:53 AM 55.9 °F 53.1 °F 90% 29.87 in 10.0 mi SE 3.5 mph - 0.00 in   Overcast
6:22 AM 55.4 °F 53.6 °F 94% 29.87 in 10.0 mi SE 4.6 mph - N/A   Overcast
6:29 AM 55.4 °F 53.6 °F 94% 29.87 in 10.0 mi ESE 5.8 mph - 0.00 in Rain Light Rain
6:38 AM 55.4 °F 53.6 °F 94% 29.88 in 8.0 mi SSE 8.1 mph - 0.00 in Rain Light Rain
6:53 AM 55.0 °F 53.1 °F 93% 29.88 in 10.0 mi SE 5.8 mph - 0.00 in Rain Light Rain
7:53 AM 55.9 °F 54.0 °F 93% 29.89 in 10.0 mi Calm Calm - 0.00 in   Overcast
8:53 AM 57.9 °F 55.0 °F 90% 29.90 in 10.0 mi SSE 5.8 mph - N/A   Overcast
9:53 AM 57.9 °F 55.0 °F 90% 29.91 in 10.0 mi ESE 3.5 mph - N/A   Overcast
10:10 AM 57.2 °F 55.4 °F 94% 29.91 in 10.0 mi SE 4.6 mph - N/A   Overcast
10:34 AM 57.2 °F 55.4 °F 94% 29.92 in 10.0 mi SE 3.5 mph - N/A   Overcast
10:53 AM 57.9 °F 54.0 °F 87% 29.92 in 10.0 mi ESE 4.6 mph - N/A   Overcast
11:53 AM 60.1 °F 55.0 °F 83% 29.94 in 10.0 mi SE 8.1 mph - 0.00 in   Overcast
12:53 PM 63.0 °F 57.0 °F 81% 29.96 in 10.0 mi SE 6.9 mph - N/A   Mostly Cloudy
1:08 PM 62.6 °F 55.4 °F 77% 29.96 in 10.0 mi ESE 5.8 mph - N/A   Scattered Clouds
1:53 PM 64.9 °F 57.0 °F 75% 29.97 in 10.0 mi East 3.5 mph - N/A   Overcast
2:53 PM 66.9 °F 57.0 °F 70% 29.99 in 10.0 mi ESE 4.6 mph - N/A   Mostly Cloudy
3:53 PM 66.9 °F 57.0 °F 70% 30.00 in 10.0 mi Calm Calm - N/A   Mostly Cloudy
4:53 PM 68.0 °F 55.0 °F 63% 30.01 in 10.0 mi Calm Calm - N/A   Overcast
5:53 PM 69.1 °F 55.9 °F 63% 30.00 in 10.0 mi Variable 3.5 mph - N/A   Clear
6:53 PM 64.9 °F 55.0 °F 70% 30.03 in 10.0 mi Calm Calm - N/A   Scattered Clouds
7:53 PM 55.9 °F 52.0 °F 87% 30.04 in 10.0 mi Calm Calm - N/A   Mostly Cloudy
8:53 PM 55.9 °F 52.0 °F 87% 30.05 in 10.0 mi Calm Calm - N/A   Overcast
9:53 PM 54.0 °F 52.0 °F 93% 30.07 in 10.0 mi Calm Calm - N/A   Mostly Cloudy
10:53 PM 54.0 °F 52.0 °F 93% 30.08 in 10.0 mi Calm Calm - N/A   Overcast
11:53 PM 55.0 °F 53.1 °F 93% 30.08 in 10.0 mi Calm Calm - N/A   Overcast